timestamp,surface_pressure_avg,surface_temp_avg,battery_voltage,lat,long
2017-09-03 00:00:00+00:00,279.0064,14.9,12.33,47.84626,-54.09684
2017-09-03 00:10:00+00:00,273.0297,14.99,12.33,47.84626,-54.09684
2017-09-03 00:20:00+00:00,271.1097,15.0,12.41,47.84626,-54.09684
2017-09-03 00:30:00+00:00,265.6347,15.0,12.41,47.84626,-54.09684
2017-09-03 00:40:00+00:00,254.4614,15.0,12.41,47.84626,-54.09684
2017-09-03 00:50:00+00:00,249.8848,14.98,12.41,47.84626,-54.09684
2017-09-03 01:00:00+00:00,252.1164,14.9,12.33,47.84626,-54.09684
2017-09-03 01:10:00+00:00,248.9964,14.9,12.33,47.84626,-54.09684
2017-09-03 01:20:00+00:00,240.6198,14.9,12.41,47.84626,-54.09684
2017-09-03 01:30:00+00:00,238.4948,14.83,12.41,47.84626,-54.09684
2017-09-03 01:40:00+00:00,237.6414,14.88,12.41,47.84626,-54.09684
2017-09-03 01:50:00+00:00,230.6598,14.87,12.41,47.84626,-54.09684
2017-09-03 02:00:00+00:00,224.9597,14.86,12.33,47.84626,-54.09684
2017-09-03 02:10:00+00:00,226.1231,14.87,12.33,47.84626,-54.09684
2017-09-03 02:20:00+00:00,222.4265,14.83,12.33,47.84626,-54.09684
2017-09-03 02:30:00+00:00,214.8048,14.83,12.33,47.84626,-54.09684
2017-09-03 02:40:00+00:00,211.0464,14.85,12.33,47.84626,-54.09684
2017-09-03 02:50:00+00:00,212.3631,14.8,12.33,47.84626,-54.09684
2017-09-03 03:00:00+00:00,210.6314,14.8,12.33,47.84626,-54.09684
2017-09-03 03:10:00+00:00,208.1531,14.8,12.33,47.84626,-54.09684
2017-09-03 03:20:00+00:00,208.9931,14.8,12.33,47.84626,-54.09684
2017-09-03 03:30:00+00:00,208.0181,14.8,12.33,47.84626,-54.09684
2017-09-03 03:40:00+00:00,205.6814,14.8,12.33,47.84626,-54.09684
2017-09-03 03:50:00+00:00,207.8414,14.8,12.33,47.84626,-54.09684
2017-09-03 04:00:00+00:00,209.6364,14.8,12.33,47.84626,-54.09684
2017-09-03 04:10:00+00:00,209.1698,14.76,12.33,47.84626,-54.09684
2017-09-03 04:20:00+00:00,213.3748,14.73,12.33,47.84626,-54.09684
2017-09-03 04:30:00+00:00,218.0148,14.75,12.33,47.84626,-54.09684
2017-09-03 04:40:00+00:00,218.0432,14.73,12.33,47.84626,-54.09684
2017-09-03 04:50:00+00:00,218.2398,14.7,12.33,47.84626,-54.09684
2017-09-03 05:00:00+00:00,224.3347,14.7,12.33,47.84626,-54.09684
2017-09-03 05:10:00+00:00,228.3681,14.7,12.33,47.84626,-54.09684
2017-09-03 05:20:00+00:00,227.7414,14.7,12.33,47.84626,-54.09684
2017-09-03 05:30:00+00:00,229.4931,14.7,12.33,47.84626,-54.09684
2017-09-03 05:40:00+00:00,232.0814,14.7,12.33,47.84626,-54.09684
2017-09-03 05:50:00+00:00,232.2114,14.7,12.33,47.84626,-54.09684
2017-09-03 06:00:00+00:00,236.0014,14.7,12.33,47.84626,-54.09684
2017-09-03 06:10:00+00:00,244.5264,14.7,12.33,47.84626,-54.09684
2017-09-03 06:20:00+00:00,251.6097,14.7,12.33,47.84626,-54.09684
2017-09-03 06:30:00+00:00,254.4914,14.7,12.33,47.84626,-54.09684
2017-09-03 06:40:00+00:00,260.9497,14.7,12.33,47.84626,-54.09684
2017-09-03 06:50:00+00:00,270.3781,14.7,12.33,47.84626,-54.09684
2017-09-03 07:00:00+00:00,271.7831,14.69,12.33,47.84626,-54.09684
2017-09-03 07:10:00+00:00,271.5631,14.6,12.33,47.84626,-54.09684
2017-09-03 07:20:00+00:00,281.4881,14.6,12.33,47.84626,-54.09684
2017-09-03 07:30:00+00:00,290.6064,14.6,12.33,47.84626,-54.09684
2017-09-03 07:40:00+00:00,290.7464,14.6,12.33,47.84626,-54.09684
2017-09-03 07:50:00+00:00,296.3864,14.6,12.33,47.84626,-54.09684
2017-09-03 08:00:00+00:00,306.2363,14.6,12.33,47.84626,-54.09684
2017-09-03 08:10:00+00:00,308.5197,14.6,12.33,47.84626,-54.09684
2017-09-03 08:20:00+00:00,305.168,14.58,12.33,47.84626,-54.09684
2017-09-03 08:30:00+00:00,312.0847,14.56,12.33,47.84626,-54.09684
2017-09-03 08:40:00+00:00,317.5247,14.52,12.33,47.84626,-54.09684
2017-09-03 08:50:00+00:00,315.0547,14.52,12.33,47.84626,-54.09684
2017-09-03 09:00:00+00:00,315.123,14.5,12.33,47.84626,-54.09684
2017-09-03 09:10:00+00:00,316.8247,14.5,12.33,47.84626,-54.09684
2017-09-03 09:20:00+00:00,317.7947,14.5,12.33,47.84626,-54.09684
2017-09-03 09:30:00+00:00,319.773,14.5,12.41,47.84626,-54.09684
2017-09-03 09:40:00+00:00,321.6013,14.5,12.41,47.84626,-54.09684
2017-09-03 09:50:00+00:00,321.2745,14.5,12.41,47.84626,-54.09684
2017-09-03 10:00:00+00:00,322.5264,14.5,12.41,47.84626,-54.09684
2017-09-03 10:10:00+00:00,322.418,14.5,12.49,47.84626,-54.09684
2017-09-03 10:20:00+00:00,323.7662,14.5,12.57,47.84626,-54.09684
2017-09-03 10:30:00+00:00,322.8414,14.5,12.65,47.84626,-54.09684
2017-09-03 10:40:00+00:00,322.2646,14.5,12.65,47.84626,-54.09684
2017-09-03 10:50:00+00:00,320.1497,14.55,12.73,47.84626,-54.09684
2017-09-03 11:00:00+00:00,316.5081,14.56,12.73,47.84626,-54.09684
2017-09-03 11:10:00+00:00,314.1847,14.59,12.73,47.84626,-54.09684
2017-09-03 11:20:00+00:00,308.2163,14.5,12.81,47.84626,-54.09684
2017-09-03 11:30:00+00:00,302.9197,14.5,12.81,47.84626,-54.09684
2017-09-03 11:40:00+00:00,298.013,14.5,12.81,47.84626,-54.09684
2017-09-03 11:50:00+00:00,292.9763,14.5,12.81,47.84626,-54.09684
2017-09-03 12:00:00+00:00,284.0764,14.45,12.81,47.84626,-54.09684
2017-09-03 12:10:00+00:00,277.4764,14.47,12.81,47.84626,-54.09684
2017-09-03 12:20:00+00:00,276.6631,14.45,12.81,47.84626,-54.09684
2017-09-03 12:30:00+00:00,272.3531,14.49,12.81,47.84626,-54.09684
2017-09-03 12:40:00+00:00,264.0064,14.5,12.89,47.84626,-54.09684
2017-09-03 12:50:00+00:00,261.5464,14.5,12.89,47.84626,-54.09684
2017-09-03 13:00:00+00:00,260.7781,14.5,12.81,47.84626,-54.09684
2017-09-03 13:10:00+00:00,255.1814,14.5,12.89,47.84626,-54.09684
2017-09-03 13:20:00+00:00,249.6781,14.5,12.89,47.84626,-54.09684
2017-09-03 13:30:00+00:00,248.6947,14.54,12.89,47.84626,-54.09684
2017-09-03 13:40:00+00:00,245.7347,14.59,12.89,47.84626,-54.09684
2017-09-03 13:50:00+00:00,240.3881,14.6,12.89,47.84626,-54.09684
2017-09-03 14:00:00+00:00,239.1047,14.6,12.89,47.84626,-54.09684
2017-09-03 14:10:00+00:00,239.0581,14.6,12.89,47.84626,-54.09684
2017-09-03 14:20:00+00:00,234.3481,14.6,12.97,47.84626,-54.09684
2017-09-03 14:30:00+00:00,227.5914,14.69,12.89,47.84626,-54.09684
2017-09-03 14:40:00+00:00,225.4148,14.7,12.97,47.84626,-54.09684
2017-09-03 14:50:00+00:00,223.3897,14.7,12.97,47.84626,-54.09684
2017-09-03 15:00:00+00:00,217.7031,14.6,12.89,47.84626,-54.09684
2017-09-03 15:10:00+00:00,213.9698,14.6,12.89,47.84626,-54.09684
2017-09-03 15:20:00+00:00,215.0298,14.6,12.97,47.84626,-54.09684
2017-09-03 15:30:00+00:00,212.0248,14.63,12.97,47.84626,-54.09684
2017-09-03 15:40:00+00:00,206.4348,14.67,12.97,47.84626,-54.09684
2017-09-03 15:50:00+00:00,206.4998,14.69,12.97,47.84626,-54.09684
2017-09-03 16:00:00+00:00,209.3831,14.7,12.89,47.84626,-54.09684
2017-09-03 16:10:00+00:00,209.4814,14.8,12.89,47.84626,-54.09684
2017-09-03 16:20:00+00:00,211.0364,14.81,12.89,47.84626,-54.09684
2017-09-03 16:30:00+00:00,215.8564,15.08,12.89,47.84626,-54.09684
2017-09-03 16:40:00+00:00,218.9548,15.2,12.89,47.84626,-54.09684
2017-09-03 16:50:00+00:00,220.0214,15.13,12.89,47.84626,-54.09684
2017-09-03 17:00:00+00:00,223.3515,15.1,12.81,47.84626,-54.09684
2017-09-03 17:10:00+00:00,226.7565,14.99,12.81,47.84626,-54.09684
2017-09-03 17:20:00+00:00,230.4531,14.9,12.89,47.84626,-54.09684
2017-09-03 17:30:00+00:00,234.8148,14.89,12.81,47.84626,-54.09684
2017-09-03 17:40:00+00:00,238.9064,14.8,12.81,47.84626,-54.09684
2017-09-03 17:50:00+00:00,243.3147,14.8,12.81,47.84626,-54.09684
2017-09-03 18:00:00+00:00,245.6664,14.8,12.73,47.84626,-54.09684
2017-09-03 18:10:00+00:00,246.1897,14.8,12.73,47.84626,-54.09684
2017-09-03 18:20:00+00:00,251.5064,14.79,12.73,47.84626,-54.09684
2017-09-03 18:30:00+00:00,260.3514,14.79,12.73,47.84626,-54.09684
2017-09-03 18:40:00+00:00,266.1447,14.78,12.73,47.84626,-54.09684
2017-09-03 18:50:00+00:00,270.5047,14.74,12.73,47.84626,-54.09684
2017-09-03 19:00:00+00:00,277.1014,14.7,12.65,47.84626,-54.09684
2017-09-03 19:10:00+00:00,280.8447,14.5,12.65,47.84626,-54.09684
2017-09-03 19:20:00+00:00,284.6964,14.51,12.65,47.84626,-54.09684
2017-09-03 19:30:00+00:00,290.5381,14.57,12.65,47.84626,-54.09684
2017-09-03 19:40:00+00:00,293.4447,14.59,12.65,47.84626,-54.09684
2017-09-03 19:50:00+00:00,291.4197,14.6,12.65,47.84626,-54.09684
2017-09-03 20:00:00+00:00,296.5647,14.6,12.65,47.84626,-54.09684
2017-09-03 20:10:00+00:00,308.3314,14.5,12.57,47.84626,-54.09684
2017-09-03 20:20:00+00:00,315.9063,14.48,12.65,47.84626,-54.09684
2017-09-03 20:30:00+00:00,320.5663,14.5,12.65,47.84626,-54.09684
2017-09-03 20:40:00+00:00,330.1414,14.5,12.65,47.84626,-54.09684
2017-09-03 20:50:00+00:00,334.5713,14.5,12.65,47.84626,-54.09684
2017-09-03 21:00:00+00:00,336.4163,14.5,12.57,47.84626,-54.09684
2017-09-03 21:10:00+00:00,340.1846,14.5,12.57,47.84626,-54.09684
2017-09-03 21:20:00+00:00,341.5346,14.5,12.57,47.84626,-54.09684
2017-09-03 21:30:00+00:00,337.1031,14.5,12.57,47.84626,-54.09684
2017-09-03 21:40:00+00:00,333.6163,14.5,12.57,47.84626,-54.09684
2017-09-03 21:50:00+00:00,338.4464,14.5,12.57,47.84626,-54.09684
2017-09-03 22:00:00+00:00,339.188,14.5,12.57,47.84626,-54.09684
2017-09-03 22:10:00+00:00,338.7347,14.5,12.57,47.84626,-54.09684
2017-09-03 22:20:00+00:00,342.438,14.55,12.57,47.84626,-54.09684
2017-09-03 22:30:00+00:00,342.2396,14.6,12.57,47.84626,-54.09684
2017-09-03 22:40:00+00:00,339.7213,14.6,12.57,47.84626,-54.09684
2017-09-03 22:50:00+00:00,339.1229,14.6,12.57,47.84626,-54.09684
2017-09-03 23:00:00+00:00,338.5797,14.6,12.57,47.84626,-54.09684
2017-09-03 23:10:00+00:00,331.4113,14.6,12.49,47.84626,-54.09684
2017-09-03 23:20:00+00:00,325.6447,14.6,12.57,47.84626,-54.09684
2017-09-03 23:30:00+00:00,326.6729,14.5,12.57,47.84626,-54.09684
2017-09-03 23:40:00+00:00,323.4413,14.5,12.57,47.84626,-54.09684
2017-09-03 23:50:00+00:00,312.5814,14.6,12.57,47.84626,-54.09684
